Regional Weather Roundup
Issued by NWS

Home | Current Version | Previous Version | Graphics & Text | Print | Product List | Glossary Off
Versions: 1 2 3 4 5 6 7 8 9 10 11 12 13 14 15 16 17 18 19 20 21 22 23 24 25 26 27 28 29 30 31 32 33 34 35 36 37 38 39 40 41 42 43 44 45 46 47 48 49 50

000
ASUS43 KLSX 190207
RWRMO

WEATHER SUMMARY FOR MISSOURI
NATIONAL WEATHER SERVICE SPRINGFIELD MO
900 PM CDT SAT APR 18 2015

NOTE: "FAIR" INDICATES FEW OR NO CLOUDS BELOW 12,000 FEET WITH NO
       SIGNIFICANT WEATHER AND/OR OBSTRUCTIONS TO VISIBILITY.
       CURRENT SKY AND/OR WEATHER CONDITIONS ARE NOT AVAILABLE FOR
       CHILLICOTHE AND FARMINGTON.

MOZ001>031-035>038-043-044-053-054-190300-
...NORTHERN AND WESTERN MISSOURI...

CITY           SKY/WX    TMP DP  RH WIND       PRES   REMARKS
KANSAS CTY INT PTCLDY    58  57  97 S6        29.84R
KANSAS C DTWN  PTCLDY    63  57  81 SE3       29.83S
LEE`S SUMMIT   CLOUDY    61  58  90 SE5       29.84S
ST JOSEPH      PTCLDY    60  57  89 SE5       29.84S
CHILLICOTHE      N/A     62  59  90 CALM      29.85F
KIRKSVILLE     CLOUDY    60  58  92 E7        29.87S

$$
MOZ066>068-077>081-088>096-101>105-190300-
...SOUTHWEST MISSOURI...

CITY           SKY/WX    TMP DP  RH WIND       PRES   REMARKS
SPRINGFIELD    PTCLDY    63  57  81 NE5       29.83S
JOPLIN         CLEAR     63  57  81 E7        29.81F

$$
MOZ032>034-039>042-045>050-055>058-069>072-190300-
...CENTRAL MISSOURI...

CITY           SKY/WX    TMP DP  RH WIND       PRES   REMARKS
COLUMBIA       CLOUDY    64  59  83 E7        29.87S
JEFFERSON CITY CLOUDY    67  59  75 E10       29.86S
ROLLA          CLOUDY    60  58  92 NE3       29.85S
SEDALIA        MOCLDY    61  58  90 E5        29.86S
WHITEMAN AFB   MOCLDY    60  58  95 SE3       29.84S
WARRENSBURG    PTCLDY    59  55  88 CALM      29.85R
OSAGE BEACH    PTCLDY    61  57  88 NE3       29.86R

$$
MOZ051-052-059>065-190300-
...EAST CENTRAL MISSOURI...

CITY           SKY/WX    TMP DP  RH WIND       PRES   REMARKS
ST LOUIS INTL  CLOUDY    72  55  55 E7        29.88S
SPIRIT OF STL  CLOUDY    70  56  61 E5        29.85S
ST CHARLES     CLOUDY    68  57  68 E7        29.86F

$$
MOZ072>076-082>087-097>100-106>115-190300-
...SOUTH CENTRAL AND SOUTHEAST MISSOURI...

CITY           SKY/WX    TMP DP  RH WIND       PRES   REMARKS
CAPE GIRARDEAU PTCLDY    66  61  84 CALM      29.85R
FARMINGTON     MOCLDY    66  54  63 SE5       29.91R
POPLAR BLUFF   CLOUDY    67  63  87 CALM      29.83F
WEST PLAINS    PTCLDY    64  51  62 CALM      29.86S

$$


USA.gov is the U.S. government's official web portal to all federal, state and local government web resources and services.